Location: Miles
(41.4492°N, 81.6087°W)
Time: 23:06:44
(UTC+00:00)

Explorer 7 - Visible Passes

Search period start: 11 September 2024 00:00
Search period end: 21 September 2024 00:00
Orbit: 462 x 610 km, 50.3° (Epoch: 11 September)

Date Brightness Start Highest point End Pass type
(mag) Time Alt. Az. Time Alt. Az. Time Alt. Az.
11 Sep 6.8 09:00:00 64° E 09:00:00 64° E 09:03:14 10° ENE visible
11 Sep 7.9 10:36:09 10° WNW 10:39:19 27° NNW 10:42:29 10° NE visible
12 Sep 7.4 08:50:31 48° NE 08:50:31 48° NE 08:53:14 10° ENE visible
12 Sep 8.1 10:26:20 10° WNW 10:29:25 25° NNW 10:32:29 10° NE visible
13 Sep 8.0 08:40:56 35° NE 08:40:56 35° NE 08:43:11 10° NE visible
13 Sep 8.2 10:16:28 10° WNW 10:19:27 23° NNW 10:22:25 10° NE visible
14 Sep 8.6 08:31:17 26° NE 08:31:17 26° NE 08:33:04 10° NE visible
14 Sep 8.4 10:06:39 10° WNW 10:09:27 22° N 10:12:21 10° NE visible
15 Sep 9.1 08:21:35 20° NE 08:21:35 20° NE 08:22:54 10° NE visible
15 Sep 8.5 09:56:56 12° NW 09:59:26 21° N 10:02:15 10° NE visible
16 Sep 9.5 08:11:50 16° NE 08:11:50 16° NE 08:12:42 10° NE visible
16 Sep 8.5 09:47:11 13° NW 09:49:21 20° N 09:52:08 10° NE visible
17 Sep 9.8 08:02:03 12° NE 08:02:03 12° NE 08:02:27 10° NE visible
17 Sep 8.6 09:37:23 14° NW 09:39:15 20° N 09:42:00 10° NE visible
18 Sep 8.6 09:27:34 16° NNW 09:29:06 20° N 09:31:52 10° NE visible
19 Sep 8.6 09:17:45 18° NNW 09:18:53 20° N 09:21:41 10° NE visible
20 Sep 8.5 09:07:55 20° N 09:08:39 21° N 09:11:30 10° ENE visible
